EW9067 Weather Reports


Display with metric or nautical units.
time (UTC)temp
F
wind
direction
speed
MPH
gust
MPH
rain 1hr
in
rain 24hr
in
rain mn
in
humidity
%
barometer
mb
20190617230702 78 1 0.0 1.0 0.01 0.15 0.15 84 1015.9
20190617230202 77 1 0.0 1.0 0.08 0.15 0.15 83 1015.9
20190617225702 78 1 0.0 0.0 0.15 0.15 0.15 84 1016.1
20190617225202 78 1 0.0 0.0 0.15 0.15 0.15 83 1016.4
20190617224702 78 1 0.0 1.0 0.15 0.15 0.15 83 1016.4
20190617224203 78 1 0.0 1.0 0.15 0.15 0.15 84 1016.2
20190617223703 78 0 0.0 1.0 0.15 0.15 0.15 85 1016.2
20190617223202 78 0 0.0 1.0 0.15 0.15 0.15 84 1016.1
20190617222702 78 0 0.0 2.0 0.15 0.15 0.15 85 1016.1
20190617222202 78 0 0.0 3.0 0.14 0.14 0.14 82 1016.1
20190617221702 78 87 1.0 5.0 0.14 0.14 0.14 77 1016.3
20190617221202 79 188 1.0 2.0 0.14 0.14 0.14 78 1016.1
20190617220702 80 299 1.0 2.0 0.14 0.14 0.14 72 1016.0
20190617220201 83 0 1.0 3.0 0.02 0.02 0.02 65 1015.7
20190617215702 85 264 2.0 3.0 0.00 0.00 0.00 58 1015.2
20190617215202 85 54 1.0 4.0 0.00 0.00 0.00 54 1015.0
20190617214702 86 343 2.0 4.0 0.00 0.00 0.00 52 1014.9
20190617214202 87 219 1.0 2.0 0.00 0.00 0.00 51 1015.0
20190617213702 87 226 1.0 2.0 0.00 0.00 0.00 51 1015.1
20190617213203 87 31 0.0 4.0 0.00 0.00 0.00 50 1015.2
20190617212702 87 219 2.0 4.0 0.00 0.00 0.00 49 1015.1
20190617212203 88 313 0.0 3.0 0.00 0.00 0.00 49 1015.1
20190617211702 89 37 1.0 3.0 0.00 0.00 0.00 46 1015.3
20190617211202 91 357 1.0 3.0 0.00 0.00 0.00 45 1015.3
20190617210702 91 158 1.0 3.0 0.00 0.00 0.00 45 1015.3
20190617210203 90 293 1.0 3.0 0.00 0.00 0.00 46 1015.1
20190617205703 89 238 1.0 3.0 0.00 0.00 0.00 47 1015.1
20190617205202 88 178 1.0 3.0 0.00 0.00 0.00 49 1015.3
20190617204702 87 71 1.0 2.0 0.00 0.00 0.00 48 1015.4
20190617204203 87 73 1.0 2.0 0.00 0.00 0.00 48 1015.4
20190617203701 87 72 1.0 6.0 0.00 0.00 0.00 50 1015.4
20190617203202 88 268 2.0 6.0 0.00 0.00 0.00 47 1015.5
20190617202702 89 86 1.0 3.0 0.00 0.00 0.00 49 1015.5
20190617202203 88 59 0.0 3.0 0.00 0.00 0.00 51 1015.5
20190617201702 87 34 1.0 4.0 0.00 0.00 0.00 51 1015.5
20190617201201 87 245 2.0 5.0 0.00 0.00 0.00 51 1015.7
20190617200702 88 258 3.0 5.0 0.00 0.00 0.00 50 1015.8
20190617200202 89 71 0.0 4.0 0.00 0.00 0.00 51 1015.8
20190617195701 90 71 1.0 4.0 0.00 0.00 0.00 51 1015.9
20190617195202 90 52 1.0 4.0 0.00 0.00 0.00 53 1015.8
20190617194703 90 281 1.0 3.0 0.00 0.00 0.00 54 1015.8
20190617194202 89 6 1.0 3.0 0.00 0.00 0.00 51 1015.9
20190617193702 90 316 1.0 3.0 0.00 0.00 0.00 48 1016.1
20190617193202 90 319 1.0 2.0 0.00 0.00 0.00 47 1016.0
20190617192701 90 39 1.0 3.0 0.00 0.00 0.00 45 1016.0
20190617192202 90 0 1.0 2.0 0.00 0.00 0.00 47 1016.1
20190617191702 90 355 0.0 4.0 0.00 0.00 0.00 45 1016.3
20190617191202 91 55 2.0 5.0 0.00 0.00 0.00 45 1016.2
20190617190702 92 72 1.0 5.0 0.00 0.00 0.00 40 1016.3
20190617190201 93 323 0.0 3.0 0.00 0.00 0.00 39 1016.3
20190617185702 93 321 1.0 3.0 0.00 0.00 0.00 39 1016.4
20190617185202 92 14 1.0 3.0 0.00 0.00 0.00 42 1016.3
20190617184702 91 290 1.0 3.0 0.00 0.00 0.00 44 1016.5
20190617184201 91 82 1.0 2.0 0.00 0.00 0.00 43 1016.4
20190617183702 89 324 1.0 1.0 0.00 0.00 0.00 45 1016.5
20190617183202 89 333 0.0 2.0 0.00 0.00 0.00 45 1016.5
20190617182701 89 312 0.0 3.0 0.00 0.00 0.00 44 1016.5
20190617182202 90 41 2.0 9.0 0.00 0.00 0.00 43 1016.6
20190617181702 91 63 1.0 5.0 0.00 0.00 0.00 43 1016.6
20190617181201 90 292 1.0 2.0 0.00 0.00 0.00 43 1016.6
20190617180701 92 52 1.0 3.0 0.00 0.00 0.00 42 1016.7
20190617180201 93 341 1.0 5.0 0.00 0.00 0.00 42 1016.6
20190617175702 93 319 1.0 5.0 0.00 0.00 0.00 41 1016.6
20190617175202 92 31 1.0 4.0 0.00 0.00 0.00 41 1016.6
20190617174702 92 30 1.0 3.0 0.00 0.00 0.00 41 1016.7
20190617174202 91 93 1.0 3.0 0.00 0.00 0.00 42 1016.9
20190617173702 90 312 1.0 3.0 0.00 0.00 0.00 43 1016.8
20190617173201 90 329 1.0 3.0 0.00 0.00 0.00 40 1017.0
20190617172702 90 68 1.0 4.0 0.00 0.00 0.00 40 1017.0
20190617172200 91 66 2.0 5.0 0.00 0.00 0.00 42 1017.0
20190617171700 91 35 2.0 3.0 0.00 0.00 0.00 44 1017.1
20190617171200 92 39 1.0 3.0 0.00 0.00 0.00 43 1017.1
20190617170701 90 49 1.0 3.0 0.00 0.00 0.00 43 1017.0
20190617170150 91 111 1.0 5.0 0.00 0.00 0.00 43 1017.1
20190617165647 91 344 2.0 5.0 0.00 0.00 0.00 41 1017.2
20190617165148 90 44 0.0 2.0 0.00 0.00 0.00 46 1017.2
20190617164641 90 110 1.0 4.0 0.00 0.00 0.00 46 1017.1
20190617164130 90 295 2.0 4.0 0.00 0.00 0.00 42 1017.1
20190617163631 91 28 1.0 3.0 0.00 0.00 0.00 43 1017.1
20190617163131 90 25 1.0 3.0 0.00 0.00 0.00 42 1017.1
20190617162630 89 310 1.0 2.0 0.00 0.00 0.00 44 1017.1
20190617162130 89 0 1.0 5.0 0.00 0.00 0.00 43 1017.1
20190617161631 89 47 1.0 5.0 0.00 0.00 0.00 45 1017.1
20190617161131 88 94 2.0 5.0 0.00 0.00 0.00 45 1017.1
20190617160630 89 14 2.0 3.0 0.00 0.00 0.00 46 1017.1
20190617160130 88 8 0.0 2.0 0.00 0.00 0.00 49 1017.0
20190617155631 88 7 1.0 3.0 0.00 0.00 0.00 46 1017.1
20190617155131 87 265 0.0 3.0 0.00 0.00 0.00 50 1017.1
20190617154631 87 274 0.0 3.0 0.00 0.00 0.00 46 1017.1
20190617154131 86 259 0.0 3.0 0.00 0.00 0.00 47 1017.2
20190617153631 86 348 1.0 3.0 0.00 0.00 0.00 48 1017.0
20190617153131 86 30 1.0 3.0 0.00 0.00 0.00 46 1016.8
20190617152630 86 254 1.0 3.0 0.00 0.00 0.00 45 1016.7
20190617152130 87 49 1.0 2.0 0.00 0.00 0.00 48 1016.7
20190617151626 85 62 0.0 2.0 0.00 0.00 0.00 52 1016.7
20190617151126 85 39 1.0 1.0 0.00 0.00 0.00 51 1016.7
20190617150624 85 38 0.0 2.0 0.00 0.00 0.00 53 1016.6
20190617150123 84 323 0.0 2.0 0.00 0.00 0.00 53 1016.7
20190617145622 84 20 1.0 2.0 0.00 0.00 0.00 51 1016.7
20190617145123 84 18 0.0 2.0 0.00 0.00 0.00 53 1016.7
20190617144622 83 14 1.0 2.0 0.00 0.00 0.00 52 1016.7
20190617144123 83 244 0.0 2.0 0.00 0.00 0.00 53 1016.8
20190617143622 83 244 0.0 3.0 0.00 0.00 0.00 53 1016.7
20190617143122 82 47 0.0 3.0 0.00 0.00 0.00 55 1016.7
20190617142615 82 250 0.0 1.0 0.00 0.00 0.00 54 1016.7
20190617142113 82 250 0.0 1.0 0.00 0.00 0.00 56 1016.8
20190617141613 82 250 0.0 2.0 0.00 0.00 0.00 57 1016.8
20190617141113 81 250 0.0 2.0 0.00 0.00 0.00 58 1016.8
20190617140614 81 250 0.0 2.0 0.00 0.00 0.00 58 1016.7
20190617140114 80 250 1.0 2.0 0.00 0.00 0.00 58 1016.7
20190617135611 80 250 1.0 2.0 0.00 0.00 0.00 59 1016.6
20190617135108 79 250 0.0 1.0 0.00 0.00 0.00 57 1016.6
20190617134608 79 250 0.0 1.0 0.00 0.00 0.00 59 1016.8
20190617134109 79 250 0.0 2.0 0.00 0.00 0.00 58 1016.8
20190617133606 80 250 1.0 2.0 0.00 0.00 0.00 57 1016.7
20190617133107 80 250 1.0 3.0 0.00 0.00 0.00 57 1016.5
20190617132607 80 248 1.0 3.0 0.00 0.00 0.00 56 1016.7
20190617132105 80 296 0.0 3.0 0.00 0.00 0.00 59 1016.6
20190617131604 80 224 1.0 2.0 0.00 0.00 0.00 57 1016.5
20190617131102 80 206 0.0 1.0 0.00 0.00 0.00 58 1016.7
20190617130604 80 206 0.0 3.0 0.00 0.00 0.00 59 1016.5
20190617130102 79 206 0.0 3.0 0.00 0.00 0.00 59 1016.4
20190617125602 79 251 0.0 2.0 0.00 0.00 0.00 60 1016.5
20190617125101 79 251 0.0 1.0 0.00 0.00 0.00 61 1016.4
20190617124602 79 251 0.0 2.0 0.00 0.00 0.00 62 1016.4
20190617124102 78 251 0.0 2.0 0.00 0.00 0.00 63 1016.3
20190617123601 78 244 1.0 2.0 0.00 0.00 0.00 64 1016.3
20190617123100 77 268 0.0 2.0 0.00 0.00 0.00 64 1016.4
20190617122602 77 268 1.0 2.0 0.00 0.00 0.00 65 1016.5
20190617122103 76 268 1.0 2.0 0.00 0.00 0.00 67 1016.6
20190617121603 76 268 0.0 2.0 0.00 0.00 0.00 67 1016.7
20190617121102 76 268 0.0 1.0 0.00 0.00 0.00 68 1016.8
20190617120601 76 268 0.0 1.0 0.00 0.00 0.00 68 1016.7
20190617120100 76 268 0.0 2.0 0.00 0.00 0.00 69 1016.9
20190617115602 76 268 0.0 2.0 0.00 0.00 0.00 69 1017.0
20190617115100 76 268 1.0 3.0 0.00 0.00 0.00 68 1017.0
20190617114602 76 268 1.0 3.0 0.00 0.00 0.00 69 1017.1
20190617114101 75 264 1.0 3.0 0.00 0.00 0.00 68 1016.9
20190617113600 75 316 1.0 2.0 0.00 0.00 0.00 70 1016.8
20190617113100 74 355 0.0 2.0 0.00 0.00 0.00 71 1016.7
20190617112600 74 357 0.0 2.0 0.00 0.00 0.00 72 1016.8
20190617112100 74 32 1.0 2.0 0.00 0.00 0.00 72 1016.8
20190617111600 74 25 1.0 2.0 0.00 0.00 0.00 72 1016.8
20190617111059 73 248 0.0 2.0 0.00 0.00 0.00 73 1016.7
20190617110559 73 248 0.0 2.0 0.00 0.00 0.00 73 1016.6
20190617110059 73 248 0.0 1.0 0.00 0.00 0.00 75 1016.5
20190617105559 72 248 0.0 1.0 0.00 0.00 0.00 75 1016.5
20190617105059 72 248 0.0 0.0 0.00 0.00 0.00 75 1016.5
20190617104559 72 248 0.0 1.0 0.00 0.00 0.00 76 1016.4
20190617104058 72 248 0.0 2.0 0.00 0.00 0.00 75 1016.4
20190617103558 73 248 0.0 1.0 0.00 0.00 0.00 75 1016.3
20190617103059 72 248 0.0 1.0 0.00 0.00 0.00 75 1016.2
20190617102558 72 248 0.0 0.0 0.00 0.00 0.00 77 1016.1
20190617102059 71 248 0.0 0.0 0.00 0.00 0.00 78 1016.0
20190617101558 71 248 0.0 0.0 0.00 0.00 0.00 78 1015.9
20190617101058 70 248 0.0 0.0 0.00 0.00 0.00 78 1015.6
20190617100558 71 248 0.0 0.0 0.00 0.00 0.00 77 1015.6
20190617100057 71 248 0.0 0.0 0.00 0.00 0.00 77 1015.8
20190617095557 71 248 0.0 0.0 0.00 0.00 0.00 77 1015.8
20190617095057 71 248 0.0 0.0 0.00 0.00 0.00 77 1015.7
20190617094555 71 248 0.0 1.0 0.00 0.00 0.00 76 1015.6
20190617094050 72 248 0.0 1.0 0.00 0.00 0.00 77 1015.6
20190617093551 71 248 0.0 0.0 0.00 0.00 0.00 77 1015.6
20190617093038 71 248 0.0 0.0 0.00 0.00 0.00 76 1015.4
20190617092539 72 248 0.0 0.0 0.00 0.00 0.00 75 1015.5
20190617092037 72 248 0.0 0.0 0.00 0.00 0.00 75 1015.3
20190617091536 72 248 0.0 0.0 0.00 0.00 0.00 74 1015.3
20190617091037 73 248 0.0 0.0 0.00 0.00 0.00 73 1015.0
20190617090536 74 248 0.0 1.0 0.00 0.00 0.00 72 1015.2
20190617090034 74 248 0.0 1.0 0.00 0.00 0.00 72 1015.2
20190617085530 73 248 0.0 1.0 0.00 0.00 0.00 73 1015.0
20190617085030 73 248 0.0 0.0 0.00 0.00 0.00 72 1014.6
20190617084531 74 248 0.0 0.0 0.00 0.00 0.00 71 1014.3
20190617084032 74 248 0.0 0.0 0.00 0.00 0.00 71 1014.4
20190617083532 74 248 0.0 1.0 0.00 0.00 0.00 70 1014.3
20190617083029 75 248 0.0 1.0 0.00 0.00 0.00 70 1014.4
20190617082530 75 255 0.0 2.0 0.00 0.00 0.00 70 1014.6
20190617082030 75 255 0.0 2.0 0.00 0.00 0.00 70 1014.4
20190617081530 76 255 0.0 2.0 0.00 0.00 0.00 70 1014.5
20190617081028 76 255 0.0 4.0 0.00 0.00 0.00 70 1014.3
20190617080527 76 255 0.0 4.0 0.00 0.00 0.00 70 1014.3
20190617080028 76 293 0.0 2.0 0.00 0.00 0.00 70 1014.4
20190617075528 76 295 0.0 2.0 0.00 0.00 0.00 70 1014.3
20190617075026 76 295 1.0 2.0 0.00 0.00 0.00 69 1014.4
20190617074524 77 343 0.0 2.0 0.00 0.00 0.00 69 1014.5
20190617074021 77 113 1.0 4.0 0.00 0.00 0.00 69 1014.5
20190617073521 77 111 2.0 5.0 0.00 0.00 0.00 69 1014.8
20190617073017 77 204 3.0 5.0 0.00 0.00 0.00 69 1014.8
20190617072518 77 207 2.0 4.0 0.00 0.00 0.00 68 1014.4
20190617072017 76 45 1.0 3.0 0.00 0.00 0.00 69 1013.9
20190617071516 76 42 0.0 2.0 0.00 0.00 0.00 69 1013.8
20190617071015 76 42 0.0 2.0 0.00 0.00 0.00 69 1013.6
20190617070515 76 78 0.0 1.0 0.00 0.00 0.00 70 1013.7
20190617070013 76 78 0.0 3.0 0.00 0.00 0.00 70 1013.8
20190617065507 76 78 1.0 1.0 0.00 0.00 0.00 70 1013.8
20190617065008 76 65 0.0 2.0 0.00 0.00 0.00 69 1013.6
20190617064508 76 58 0.0 2.0 0.00 0.00 0.00 69 1013.7
20190617064009 76 58 0.0 1.0 0.00 0.00 0.00 69 1013.6
20190617063508 76 56 0.0 2.0 0.00 0.00 0.00 69 1013.7
20190617063004 76 56 1.0 2.0 0.00 0.00 0.00 69 1013.6
20190617062503 76 58 0.0 3.0 0.00 0.00 0.00 69 1013.6
20190617062003 76 58 0.0 3.0 0.00 0.00 0.00 69 1013.7
20190617061503 76 58 0.0 2.0 0.00 0.00 0.00 69 1013.9
20190617060957 76 78 0.0 2.0 0.00 0.00 0.00 69 1013.7
20190617060457 76 65 0.0 2.0 0.00 0.00 0.00 69 1013.9
20190617055956 76 65 0.0 4.0 0.00 0.00 0.00 69 1014.0
20190617055454 77 65 0.0 4.0 0.00 0.00 0.00 68 1014.0
20190617054955 77 61 1.0 3.0 0.00 0.00 0.00 68 1014.0
20190617054454 77 51 1.0 2.0 0.00 0.00 0.00 68 1013.9
20190617053953 77 255 1.0 3.0 0.00 0.00 0.00 68 1014.0
20190617053456 76 65 1.0 3.0 0.00 0.00 0.00 69 1014.2
20190617052953 76 32 0.0 1.0 0.00 0.00 0.00 69 1014.1
20190617052454 76 32 0.0 1.0 0.00 0.00 0.00 69 1014.1
20190617051954 76 32 0.0 1.0 0.00 0.00 0.00 69 1014.1
20190617051452 76 32 0.0 1.0 0.00 0.00 0.00 69 1014.1
20190617050956 77 32 0.0 2.0 0.00 0.00 0.00 68 1014.0
20190617050452 76 32 0.0 2.0 0.00 0.00 0.00 69 1013.9
20190617045953 77 348 0.0 2.0 0.00 0.00 0.00 68 1013.9
20190617045452 77 271 0.0 2.0 0.00 0.00 0.00 68 1014.1
20190617044953 77 264 0.0 2.0 0.00 0.00 0.00 68 1013.9
20190617044452 77 264 0.0 2.0 0.00 0.00 0.00 68 1014.0
20190617043951 77 265 0.0 2.0 0.00 0.00 0.00 67 1013.9
20190617043452 77 266 0.0 2.0 0.00 0.00 0.00 67 1013.9
20190617042952 77 56 0.0 2.0 0.00 0.00 0.00 68 1013.7
20190617042453 77 79 1.0 2.0 0.00 0.00 0.00 67 1013.9
20190617041952 78 79 0.0 2.0 0.00 0.00 0.00 67 1013.9
20190617041452 78 45 0.0 1.0 0.00 0.00 0.00 67 1014.0
20190617040954 78 79 0.0 3.0 0.00 0.00 0.00 67 1013.9
20190617040452 78 79 0.0 3.0 0.00 0.00 0.00 67 1013.8
20190617035951 78 42 0.0 3.0 0.00 0.00 0.00 67 1013.8
20190617035451 78 20 0.0 2.0 0.00 0.00 0.00 67 1013.9
20190617034952 78 49 0.0 1.0 0.00 0.00 0.00 66 1013.9
20190617034452 78 49 0.0 1.0 0.00 0.00 0.00 67 1013.9
20190617033951 78 49 0.0 0.0 0.00 0.00 0.00 67 1013.9
20190617033450 78 49 0.0 1.0 0.00 0.00 0.00 67 1013.8
20190617032951 78 49 0.0 3.0 0.00 0.00 0.00 67 1013.7
20190617032452 78 49 1.0 3.0 0.00 0.00 0.00 66 1013.7
20190617031951 78 31 1.0 3.0 0.00 0.00 0.00 66 1013.7
20190617031452 78 0 0.0 3.0 0.00 0.00 0.00 66 1013.6
20190617030955 78 171 0.0 1.0 0.00 0.00 0.00 66 1013.5
20190617030450 79 171 0.0 1.0 0.00 0.00 0.00 66 1013.5
20190617025950 79 171 0.0 0.0 0.00 0.00 0.00 66 1013.6
20190617025454 79 161 0.0 0.0 0.00 0.00 0.00 67 1013.5
20190617024950 79 186 0.0 0.0 0.00 0.00 0.00 66 1013.5
20190617024450 79 103 0.0 0.0 0.00 0.00 0.00 66 1013.5
20190617023951 79 97 0.0 0.0 0.00 0.00 0.00 66 1013.5
20190617023450 79 97 0.0 0.0 0.00 0.00 0.00 66 1013.5
20190617022949 79 97 0.0 0.0 0.00 0.00 0.00 66 1013.4
20190617022449 79 97 0.0 0.0 0.00 0.00 0.00 65 1013.3
20190617021949 79 110 0.0 0.0 0.00 0.00 0.00 66 1013.1
20190617021450 79 323 0.0 0.0 0.00 0.00 0.00 66 1013.3
20190617020953 79 321 0.0 0.0 0.00 0.00 0.00 66 1013.3
20190617020449 79 288 0.0 0.0 0.00 0.00 0.00 66 1013.0
20190617015949 79 288 0.0 0.0 0.00 0.00 0.00 66 1013.0
20190617015449 79 288 0.0 0.0 0.00 0.00 0.00 67 1012.8
20190617014948 79 288 0.0 0.0 0.00 0.00 0.00 67 1012.8
20190617014448 79 288 0.0 0.0 0.00 0.00 0.00 66 1012.6
20190617013948 79 288 0.0 0.0 0.00 0.00 0.00 66 1012.6
20190617013452 79 286 0.0 0.0 0.00 0.00 0.00 66 1012.5
20190617012948 79 286 0.0 0.0 0.00 0.00 0.00 66 1012.4
20190617012448 80 286 0.0 0.0 0.00 0.00 0.00 66 1012.4
20190617011947 80 286 0.0 0.0 0.00 0.00 0.00 65 1012.4
20190617011447 80 286 0.0 0.0 0.00 0.00 0.00 64 1012.3
20190617010947 80 286 0.0 0.0 0.00 0.00 0.00 64 1012.1
20190617010448 81 286 0.0 0.0 0.00 0.00 0.00 64 1012.2
20190617005951 81 286 0.0 0.0 0.00 0.00 0.00 63 1012.2
20190617005435 81 286 0.0 0.0 0.00 0.00 0.00 63 1012.2
20190617004935 82 286 0.0 2.0 0.00 0.00 0.00 62 1012.2
20190617004435 82 286 0.0 4.0 0.00 0.00 0.00 62 1012.3
20190617003936 82 283 1.0 4.0 0.00 0.00 0.00 62 1012.4
20190617003433 82 0 0.0 2.0 0.00 0.00 0.00 61 1012.4
20190617002933 82 63 0.0 2.0 0.00 0.00 0.00 61 1012.5
20190617002433 83 62 0.0 1.0 0.00 0.00 0.00 61 1012.4
20190617001932 83 62 0.0 1.0 0.00 0.00 0.00 60 1012.4
20190617001433 83 62 0.0 2.0 0.00 0.00 0.00 60 1012.4
20190617000933 83 62 0.0 2.0 0.00 0.00 0.00 60 1012.3
20190617000433 84 61 0.0 1.0 0.00 0.00 0.00 59 1012.2
20190616235932 84 61 0.0 3.0 0.00 0.00 0.00 59 1012.4
20190616235433 84 61 1.0 2.0 0.00 0.00 0.00 58 1012.3
20190616234932 85 117 0.0 2.0 0.00 0.00 0.00 58 1012.3
20190616234432 85 118 0.0 2.0 0.00 0.00 0.00 57 1012.2
20190616233932 85 118 0.0 3.0 0.00 0.00 0.00 57 1012.2
20190616233432 85 69 0.0 4.0 0.00 0.00 0.00 57 1012.2
20190616232932 85 44 1.0 3.0 0.00 0.00 0.00 55 1012.1
20190616232432 85 300 0.0 3.0 0.00 0.00 0.00 56 1012.2
20190616231932 85 48 0.0 3.0 0.00 0.00 0.00 55 1012.2
20190616231433 86 61 1.0 3.0 0.00 0.00 0.00 55 1012.3